Flag for Uruguay Weather past 2 weeks in Maldonado, Uruguay

Now
66 °F

Sunny.


Feels Like: 66 °F
Forecast: 55 / 67 °F
Wind: 17 mph from Northeast

Location: Capitan Corbeta

Current Time: Jul 31, 2015 at 10:32:19 AM

Latest Report: Jul 31, 2015 at 10:00 AM


Visibility: 10 mi

Pressure: 29.68 "Hg

Humidity: 73%

Dew point: 57 °F

Location of MaldonadoLocation

Historic Weather in Maldonado — Graph

°F

Maldonado temperature yesterday

Maximum temperature yesterday: 66 °F (at 1:00 PM)
Minimum temperature yesterday: 52 °F (at 3:00 AM)
Average temperature yesterday: 57 °F

Past Weeks' High & Low Weather Summary

 TemperatureHumidityPressure
High75 °F (Jul 28, 1:00 PM)100% (Jul 19, 2:00 AM)30.33 "Hg (Jul 19, 2:00 AM)
Low32 °F (Jul 17, 4:00 AM)38% (Jul 16, 1:00 PM)29.71 "Hg (Jul 31, 8:00 AM)
Average53 °F79%30.14 "Hg
* Reported Jul 16 9:00 AM — Jul 31 9:00 AM, Maldonado, Weather by CustomWeather, © 2015

Note: Actual official high and low records may vary slightly from our data, if they occured in-between our weather recording intervals... More about our weather records

Advertising

Maldonado weather history for previous 24 hours

 ConditionsComfort  
Time TempWeatherWind HumidityBarometerVisibility
9:00 AM
Fri, Jul 31
64 °FSunny.17 mph78%29.74 "Hg10 mi
8:00 AM64 °FSunny.20 mph83%29.71 "Hg10 mi
7:00 AM63 °FSunny.17 mph88%29.74 "Hg10 mi
6:00 AM63 °FOvercast.16 mph88%29.74 "HgN/A
5:00 AM63 °FMostly cloudy.20 mph88%29.80 "HgN/A
4:00 AM63 °FMostly cloudy.21 mph88%29.83 "HgN/A
3:00 AM63 °FMostly cloudy.23 mph88%29.86 "HgN/A
2:00 AM63 °FMostly cloudy.20 mph88%29.89 "HgN/A
1:00 AM63 °FOvercast.20 mph94%29.95 "HgN/A
12:00 AM61 °FOvercast.20 mph94%29.95 "Hg6 mi
11:00 PM
Thu, Jul 30
59 °FOvercast.20 mph94%29.98 "Hg5 mi
10:00 PM61 °FOvercast.16 mph94%29.98 "Hg5 mi
9:00 PM59 °FRain. Overcast.20 mph94%30.01 "Hg3 mi
8:00 PM59 °FRain. Overcast.21 mph94%30.04 "Hg4 mi
6:00 PM59 °FRain. Overcast.17 mph88%30.04 "Hg1 mi
5:00 PM59 °FThunderstorms. Overcast.23 mph94%30.04 "Hg2 mi
4:00 PM59 °FThunderstorms. Overcast.23 mph88%30.09 "Hg1 mi
3:00 PM59 °FThunderstorms. Overcast.15 mph82%30.09 "Hg3 mi
2:00 PM64 °FMore clouds than sun.17 mph73%30.07 "HgN/A
1:00 PM66 °FBroken clouds.21 mph73%30.09 "HgN/A
12:00 PM63 °FOvercast.15 mph83%30.15 "HgN/A
11:00 AM61 °FPartly sunny.14 mph94%30.15 "Hg5 mi
10:00 AM55 °FFog.14 mph94%30.15 "Hg3 mi
Weather by CustomWeather, © 2015

See weather overviewHow to use our weather pages